Location: Arroyo Retuerta
(40.5469°N, 4.3534°W)
Time: 05:23:49
(UTC+00:00)

STARLINK-1104 - Pass Details

Date: 01 June 2020
Orbit: 549 x 550 km, 53.0° (Epoch: 05 July)

Event Time Altitude Azimuth Distance (km) Brightness Sun altitude
Rises 21:38:23 0° 312° (NW) 2,724 8.8 -17.4°
Reaches altitude 10° 21:40:44 10° 320° (NW) 1,828 7.6 -17.7°
Maximum altitude 21:44:41 41° 31° (NNE) 804 4.6 -18.1°
Enters shadow 21:46:37 25° 86° (E) 1,139 4.9 -18.3°
